[[{"header":{"parameterUnit":"m.s-1","parameterCategory":1,"la1":30.2991,"la2":30.254,"lo1":-89.0895,"lo2":-89.0444,"dy":0.0017,"dx":0.0017,"nx":28,"ny":28,"refTime":"2023-10-16T09:00:00:Z","depth":0,"parameterNumber":2,"parameterNumberName":"U-component_of_WINDS"},"data":[0,0,0,0,0,0,0,0,0,0,0,0,0,0,0,0,0,0,0,0,0,0,0,0,0,0,0,0,0,0,0,0,0,0,0,0,0,0,0,0,0,0,0,0,0,0,0,0,0,0,0,0,0,0,0,0,0,0,-0.5944,-0.5944,0,-0.5957,-0.5957,-0.5957,-0.5926,-0.5925,-0.5924,-0.5923,-0.5936,-0.5938,-0.5939,0,0,0,0,0,0,0,0,0,0,0,0,0,-0.5892,-0.5893,-0.5944,-0.5944,-0.5944,-0.5957,-0.5957,-0.5957,-0.5926,-0.5925,-0.5924,-0.5923,-0.5936,-0.5937,-0.5939,0,0,0,0,0,0,0,0,0,0,0,0,0,-0.5911,-0.5893,-0.5944,-0.593,-0.5929,-0.5957,-0.5957,-0.5957,-0.5927,-0.5925,-0.5924,-0.5922,-0.5935,-0.5937,-0.5939,-0.598,0,0,-0.5945,-0.5946,0,0,0,0,0,0,0,0,-0.591,-0.5913,-0.5932,-0.5931,-0.593,-0.5938,-0.5943,-0.5965,-0.5927,-0.5928,-0.5923,-0.5922,-0.5938,-0.594,-0.5945,-0.5981,-0.5981,-0.5945,-0.5946,-0.5947,-0.5948,0,0,0,0,0,0,0,-0.5908,-0.5912,-0.5949,-0.5932,-0.5931,-0.5923,-0.5924,-0.5947,-0.5941,-0.5927,-0.5925,-0.5927,-0.5937,-0.5944,-0.5945,-0.5981,-0.5945,-0.5947,-0.5948,-0.5949,-0.6052,-0.6053,0,0,0,0,0,0,-0.5909,-0.5911,-0.5948,-0.5949,-0.5916,-0.5926,-0.5927,-0.5937,-0.5941,-0.594,-0.5928,-0.5926,-0.5941,-0.5943,-0.5946,-0.5995,-0.5947,-0.5949,-0.595,-0.605,-0.6052,-0.6054,0,0,0,0,0,0,-0.5908,-0.5912,-0.5948,-0.5929,-0.5933,-0.5928,-0.594,-0.5938,-0.5944,-0.5941,-0.594,-0.5936,-0.594,-0.5943,-0.5972,-0.5995,-0.595,-0.5951,-0.6048,-0.6051,-0.6053,-0.6093,0,0,0,0,0,0,-0.5906,-0.5912,-0.5928,-0.593,-0.5935,-0.5974,-0.5941,-0.5939,-0.5948,-0.5944,-0.5948,-0.5947,-0.5939,-0.5969,-0.5974,-0.5997,-0.5953,-0.6046,-0.6049,-0.6052,-0.609,-0.6097,-0.6102,0,0,0,0,0,-0.5905,-0.5938,-0.5929,-0.5934,-0.5954,-0.5975,-0.5978,-0.5968,-0.595,-0.5966,-0.5964,-0.5947,-0.5991,-0.5973,-0.5977,-0.6001,-0.6045,-0.6049,-0.6052,-0.6087,-0.6095,-0.6102,0,0,0,0,0,0,-0.5939,-0.5938,-0.5928,-0.5963,-0.597,-0.597,-0.599,-0.5977,-0.5989,-0.5985,-0.5972,-0.5973,-0.6004,-0.6005,-0.5984,-0.6041,-0.6015,-0.602,-0.604,-0.6048,-0.6054,-0.6054,-0.5954,0,0,0,0,0,-0.595,-0.5968,-0.5967,-0.5998,-0.6002,-0.5995,-0.6004,-0.5996,-0.6002,-0.6005,-0.6005,-0.6011,-0.6026,-0.6037,-0.6051,-0.6089,-0.609,-0.6108,-0.6114,-0.6119,-0.6124,-0.6145,-0.6154,-0.6066,-0.6066,-0.6066,0,0,-0.5975,-0.5976,-0.5988,-0.6005,-0.6009,-0.6028,-0.5998,-0.6019,-0.6033,-0.6008,-0.6035,-0.6036,-0.6042,-0.6076,-0.6091,-0.6078,-0.6148,-0.6124,-0.6128,-0.613,-0.615,-0.6158,-0.6166,-0.6068,-0.6068,-0.6068,0,0,-0.6029,-0.6031,-0.6058,-0.6063,-0.607,-0.6065,-0.6072,-0.6074,-0.6074,-0.6101,-0.6083,-0.6099,-0.6126,-0.6131,-0.6138,-0.6194,-0.618,-0.6199,-0.6232,-0.6253,-0.626,-0.6266,-0.6287,-0.6295,-0.6203,-0.6203,-0.6203,0,-0.6058,-0.6086,-0.6074,-0.6096,-0.6104,-0.6083,-0.611,-0.6115,-0.6126,-0.6132,-0.6117,-0.615,-0.6153,-0.6188,-0.6202,-0.6207,-0.6215,-0.6199,-0.626,-0.6266,-0.6272,-0.6292,-0.6299,-0.6205,-0.6205,-0.6205,-0.6205,0,-0.6122,-0.6141,-0.6162,-0.6174,-0.6184,-0.6209,-0.6201,-0.6212,-0.6203,-0.62,-0.6229,-0.6231,-0.6245,-0.6253,-0.6244,-0.6287,-0.6279,-0.6262,-0.6236,-0.6283,-0.6301,-0.6309,-0.6209,-0.6208,-0.6207,-0.6207,0,0,-0.6198,-0.6203,-0.6211,-0.6216,-0.6222,-0.6237,-0.6261,-0.6275,-0.6286,-0.6293,-0.6314,-0.6337,-0.6321,-0.6328,-0.6319,-0.6338,-0.6383,-0.6319,-0.6319,-0.6332,-0.6433,-0.6447,-0.6456,-0.6374,-0.6375,-0.6376,-0.6433,0,-0.6253,-0.6294,-0.6284,-0.6325,-0.6344,-0.6323,-0.6344,-0.635,-0.6348,-0.6363,-0.636,-0.6377,-0.6355,-0.6359,-0.6376,-0.6374,-0.6404,-0.637,-0.6393,-0.6394,-0.6393,-0.6465,-0.648,-0.6533,-0.644,-0.6441,-0.6442,0,-0.6322,-0.6333,-0.6376,-0.638,-0.6387,-0.6406,-0.6418,-0.6433,-0.6439,-0.6436,-0.6444,-0.6432,-0.6456,-0.6428,-0.6461,-0.6438,-0.6447,-0.6447,-0.6449,-0.6452,-0.6422,-0.6471,-0.655,-0.6558,-0.6453,-0.6452,-0.6451,0,-0.6375,-0.6401,-0.643,-0.6435,-0.6439,-0.6453,-0.6456,-0.646,-0.647,-0.648,-0.6487,-0.65,-0.6507,-0.6518,-0.651,-0.649,-0.6544,-0.6516,-0.6543,-0.6543,-0.6556,-0.6556,-0.6639,-0.656,-0.656,-0.656,-0.6559,0,-0.6437,-0.6465,-0.6454,-0.6472,-0.6502,-0.6491,-0.6521,-0.6521,-0.6525,-0.6543,-0.6526,-0.6543,-0.653,-0.6546,-0.654,-0.6568,-0.6571,-0.657,-0.6568,-0.6573,-0.6573,-0.6579,-0.6576,-0.6562,-0.6561,-0.6561,-0.656,0,-0.6502,-0.6496,-0.6527,-0.6529,-0.653,-0.6552,-0.6553,-0.657,-0.6567,-0.659,-0.6594,-0.6589,-0.6607,-0.6599,-0.6618,-0.6614,-0.6651,-0.6643,-0.6649,-0.6648,-0.6676,-0.6674,-0.6767,-0.6779,-0.6691,-0.6692,-0.6692,0,-0.6543,-0.6564,-0.6568,-0.6579,-0.6583,-0.66,-0.661,-0.6599,-0.661,-0.6619,-0.6635,-0.6651,-0.6664,-0.6694,-0.6692,-0.6706,-0.67,-0.6731,-0.6702,-0.6706,-0.6702,-0.6701,-0.6704,-0.6738,-0.6739,-0.6739,-0.674,0,-0.6617,-0.6613,-0.6628,-0.6642,-0.6654,-0.6664,-0.6673,-0.6683,-0.6672,-0.6685,-0.6704,-0.6714,-0.6733,-0.675,-0.6763,-0.6765,-0.6752,-0.6749,-0.6756,-0.6762,-0.6765,-0.6765,-0.6667,-0.6747,-0.6747,-0.6746,-0.6746,-0.6745,-0.6672,-0.669,-0.6696,-0.6713,-0.6719,-0.6727,-0.6744,-0.6742,-0.6758,-0.6773,-0.6765,-0.6787,-0.6793,-0.6809,-0.6813,-0.683,-0.6818,-0.6828,-0.6831,-0.6834,-0.6838,-0.6761,-0.6832,-0.6832,-0.6832,-0.6831,-0.6831,0,-0.6746,-0.6749,-0.6765,-0.6778,-0.6792,-0.6777,-0.6786,-0.6799,-0.6818,-0.6825,-0.6838,-0.686,-0.6876,-0.6875,-0.689,-0.6904,-0.6898,-0.6908,-0.6908,-0.6909,-0.6848,-0.6841,-0.6913,-0.6913,-0.6913,-0.6913,-0.6913,-0.6913,-0.6786,-0.6816,-0.6813,-0.6846,-0.6848,-0.687,-0.6876,-0.6884,-0.689,-0.6915,-0.6928,-0.6928,-0.6931,-0.6947,-0.6961,-0.696,-0.6967,-0.6981,-0.6978,-0.6921,-0.6913,-0.6905,-0.6898,-0.6982,-0.6982,-0.7037,-0.7038,-0.7038]},{"header":{"parameterUnit":"m.s-1","parameterCategory":1,"la1":30.2991,"la2":30.254,"lo1":-89.0895,"lo2":-89.0444,"dy":0.0017,"dx":0.0017,"nx":28,"ny":28,"refTime":"2023-10-16T09:00:00:Z","depth":0,"parameterNumber":3,"parameterNumberName":"V-component_of_WINDS"},"data":[0,0,0,0,0,0,0,0,0,0,0,0,0,0,0,0,0,0,0,0,0,0,0,0,0,0,0,0,0,0,0,0,0,0,0,0,0,0,0,0,0,0,0,0,0,0,0,0,0,0,0,0,0,0,0,0,0,0,-2.864,-2.8641,0,-2.873,-2.8731,-2.8732,-2.872,-2.8719,-2.8717,-2.8716,-2.8807,-2.8811,-2.8814,0,0,0,0,0,0,0,0,0,0,0,0,0,-2.8455,-2.8459,-2.8639,-2.8641,-2.8642,-2.873,-2.8731,-2.8732,-2.872,-2.8719,-2.8717,-2.8715,-2.8806,-2.881,-2.8815,0,0,0,0,0,0,0,0,0,0,0,0,0,-2.854,-2.846,-2.8639,-2.8646,-2.8648,-2.873,-2.8731,-2.8733,-2.8721,-2.8718,-2.8716,-2.8714,-2.8804,-2.881,-2.8815,-2.8895,0,0,-2.8833,-2.8835,0,0,0,0,0,0,0,0,-2.8535,-2.8546,-2.8644,-2.8646,-2.8648,-2.8712,-2.87,-2.8787,-2.8721,-2.8693,-2.8716,-2.8713,-2.8777,-2.8785,-2.8807,-2.89,-2.8904,-2.8833,-2.8837,-2.8839,-2.8841,0,0,0,0,0,0,0,-2.8529,-2.8542,-2.8675,-2.8646,-2.8648,-2.8645,-2.8654,-2.8716,-2.8746,-2.8695,-2.8695,-2.8706,-2.8777,-2.8801,-2.8809,-2.8905,-2.8833,-2.8838,-2.8842,-2.8844,-2.907,-2.9072,0,0,0,0,0,0,-2.8521,-2.8538,-2.8672,-2.8678,-2.8585,-2.865,-2.8661,-2.8693,-2.8746,-2.8751,-2.8707,-2.8705,-2.8792,-2.8802,-2.8812,-2.8911,-2.8839,-2.8845,-2.8848,-2.9067,-2.907,-2.9073,0,0,0,0,0,0,-2.8518,-2.8534,-2.8669,-2.8608,-2.8625,-2.8656,-2.8692,-2.8696,-2.872,-2.8755,-2.876,-2.8726,-2.8791,-2.8804,-2.8875,-2.8913,-2.8847,-2.8852,-2.9064,-2.9068,-2.9072,-2.9107,0,0,0,0,0,0,-2.8512,-2.8532,-2.8563,-2.8609,-2.8628,-2.8731,-2.8695,-2.87,-2.873,-2.8727,-2.8774,-2.8779,-2.879,-2.8867,-2.8881,-2.892,-2.8857,-2.9061,-2.9066,-2.9071,-2.9103,-2.9112,-2.912,0,0,0,0,0,-2.8506,-2.8569,-2.8565,-2.8581,-2.8667,-2.8733,-2.8744,-2.8756,-2.8733,-2.8765,-2.8787,-2.8778,-2.8907,-2.8874,-2.889,-2.8931,-2.9059,-2.9065,-2.907,-2.9099,-2.911,-2.912,0,0,0,0,0,0,-2.8526,-2.8575,-2.8571,-2.8651,-2.8688,-2.8731,-2.8771,-2.8767,-2.8811,-2.8807,-2.8819,-2.883,-2.8903,-2.8924,-2.8887,-2.9012,-2.8979,-2.8989,-2.8996,-2.9007,-2.9015,-2.9009,-2.8862,0,0,0,0,0,-2.854,-2.859,-2.863,-2.8696,-2.8715,-2.874,-2.8769,-2.8775,-2.8814,-2.883,-2.8857,-2.8895,-2.8944,-2.8976,-2.9023,-2.9105,-2.9116,-2.9142,-2.915,-2.9157,-2.9165,-2.9212,-2.9224,-2.9092,-2.9092,-2.9092,0,0,-2.8569,-2.8602,-2.8633,-2.8701,-2.8731,-2.8782,-2.8753,-2.8808,-2.8847,-2.8838,-2.8908,-2.8929,-2.8972,-2.905,-2.9086,-2.907,-2.9204,-2.9164,-2.9169,-2.9174,-2.9219,-2.9232,-2.9243,-2.9096,-2.9095,-2.9095,0,0,-2.8649,-2.8678,-2.8738,-2.8769,-2.8814,-2.883,-2.8845,-2.8889,-2.8903,-2.8974,-2.8968,-2.9014,-2.9098,-2.9129,-2.9156,-2.9249,-2.9243,-2.9264,-2.9308,-2.9353,-2.9364,-2.9373,-2.9408,-2.942,-2.9271,-2.9271,-2.9272,0,-2.868,-2.8758,-2.8769,-2.8826,-2.8856,-2.8851,-2.8912,-2.894,-2.8999,-2.902,-2.9002,-2.9108,-2.9137,-2.9223,-2.9245,-2.9267,-2.9284,-2.9259,-2.9361,-2.9371,-2.938,-2.9413,-2.9426,-2.9274,-2.9274,-2.9273,-2.9273,0,-2.8794,-2.8848,-2.889,-2.8948,-2.8983,-2.9042,-2.9062,-2.9096,-2.9099,-2.9117,-2.9189,-2.9223,-2.9278,-2.9298,-2.9301,-2.9385,-2.9374,-2.9358,-2.9326,-2.9395,-2.9426,-2.9439,-2.9277,-2.9276,-2.9276,-2.9275,0,0,-2.889,-2.8954,-2.8969,-2.8996,-2.9046,-2.9088,-2.9146,-2.9201,-2.9231,-2.9271,-2.9321,-2.9392,-2.9378,-2.9409,-2.9415,-2.9455,-2.9528,-2.9434,-2.9436,-2.9452,-2.9625,-2.9638,-2.9652,-2.9524,-2.9526,-2.9528,-2.9622,0,-2.8976,-2.908,-2.9092,-2.9185,-2.9235,-2.9231,-2.9282,-2.9318,-2.9337,-2.9382,-2.9402,-2.9454,-2.9431,-2.9449,-2.9488,-2.9511,-2.9563,-2.9504,-2.9571,-2.9573,-2.9563,-2.9669,-2.9682,-2.9769,-2.9634,-2.9636,-2.9638,0,-2.909,-2.9136,-2.9234,-2.9278,-2.93,-2.9346,-2.9397,-2.944,-2.9482,-2.9492,-2.9527,-2.9529,-2.9589,-2.9553,-2.9637,-2.9596,-2.9624,-2.964,-2.9643,-2.9651,-2.9611,-2.9681,-2.9797,-2.9811,-2.9657,-2.9655,-2.9654,0,-2.9153,-2.9238,-2.9308,-2.9331,-2.9384,-2.9417,-2.944,-2.9479,-2.9512,-2.9556,-2.9577,-2.9628,-2.9656,-2.9695,-2.971,-2.9682,-2.9794,-2.9759,-2.9805,-2.9805,-2.983,-2.9829,-2.9954,-2.9845,-2.9845,-2.9845,-2.9844,0,-2.9249,-2.931,-2.9337,-2.9381,-2.9449,-2.9462,-2.9528,-2.955,-2.9585,-2.9633,-2.9631,-2.9676,-2.9693,-2.974,-2.9752,-2.9821,-2.9833,-2.9844,-2.9846,-2.9845,-2.9844,-2.9865,-2.986,-2.9848,-2.9847,-2.9847,-2.9846,0,-2.9331,-2.9352,-2.9429,-2.9473,-2.9486,-2.9534,-2.9572,-2.9614,-2.9632,-2.9692,-2.9707,-2.9735,-2.9791,-2.981,-2.9877,-2.9885,-2.9965,-2.9962,-2.9952,-2.9953,-3.0,-2.9996,-3.0144,-3.0165,-3.004,-3.0041,-3.0042,0,-2.9392,-2.9439,-2.9489,-2.9521,-2.9547,-2.9598,-2.9631,-2.9646,-2.9681,-2.9732,-2.9768,-2.9823,-2.9869,-2.9958,-2.9985,-3.0036,-3.0035,-3.0083,-3.0043,-3.0041,-3.0038,-3.0036,-3.0042,-3.0092,-3.0093,-3.0094,-3.0095,0,-2.9499,-2.9507,-2.9555,-2.9608,-2.9648,-2.969,-2.973,-2.9756,-2.9777,-2.9816,-2.9874,-2.9909,-2.9978,-3.0034,-3.0087,-3.0111,-3.0107,-3.0107,-3.0121,-3.0121,-3.0114,-3.0121,-2.9975,-3.0104,-3.0103,-3.0102,-3.0102,-3.0102,-2.9574,-2.9616,-2.9658,-2.9712,-2.9744,-2.9782,-2.9825,-2.9848,-2.9897,-2.9955,-2.996,-3.0023,-3.0064,-3.0135,-3.0161,-3.021,-3.0197,-3.0216,-3.0222,-3.0227,-3.0232,-3.0105,-3.022,-3.0219,-3.0219,-3.0219,-3.0219,0,-2.9682,-2.9709,-2.9759,-2.9816,-2.9859,-2.9852,-2.9896,-2.9933,-2.9988,-3.0026,-3.0072,-3.0138,-3.0193,-3.0223,-3.0277,-3.0311,-3.0311,-3.0325,-3.0324,-3.033,-3.0239,-3.0223,-3.0324,-3.0324,-3.0324,-3.0324,-3.0324,-3.0324,-2.9744,-2.9815,-2.9828,-2.9916,-2.9942,-3.0005,-3.0031,-3.0066,-3.0097,-3.0172,-3.0218,-3.0237,-3.0273,-3.033,-3.038,-3.0387,-3.0408,-3.0424,-3.0431,-3.0346,-3.0336,-3.0325,-3.031,-3.0428,-3.0428,-3.0517,-3.0518,-3.0518]}]]